CAPE
0 0 0 0 0 0 0 0 0 0 0 0 0 0 0 0 0 0 0 0 0 0
0 0 0 0 0 0 0 0 0 0 0 0 0 0 0 0 0 0 0 0 0 0
0 0 0 0 0 0 0 0 0 0 0 0 0 0 0 0 0 0 0 0 0 0
0 0 0 0 0 0 0 0 0 0 0 0 0 0 0 0 0 0 0 0 0 0
0 0 0 0 0 0 0 0 0 0 0 0 0 0 0 0 0 0 0 0 0 0
0 0 0 0 0 0 0 0 0 0 0 0 0 0 0 0 0 0 0 0 0 0
0 0 0 0 0 0 0 0 0 0 0 0 0 0 0 0 0 0 0 0 0 0
0 0 0 0 0 0 0 0 0 0 0 0 0 0 0 0 0 0 0 0 0 0
2 1 1 0 0 0 0 0 0 0 0 0 0 0 0 0 0 0 0 0 0 0
2 2 2 2 2 1 0 0 0 0 0 0 0 0 0 0 0 0 0 0 0 0
0 0 0 1 1 1 0 0 0 0 0 0 0 0 0 1 0 0 0 0 0 0
0 0 0 0 0 0 0 0 0 0 0 0 0 0 0 1 0 0 0 0 0 0
0 0 0 0 0 0 0 0 0 0 0 0 0 0 4 7 1 0 0 0 0 4
0 0 0 0 0 0 0 0 0 0 0 0 0 0 7 16 7 8 8 4 0 0
CIN
0 0 0 0 0 0 0 0 0 0 0 0 0 0 0 0 0 0 0 0 0 0
0 0 0 0 0 0 0 0 0 0 0 0 0 0 0 0 0 0 0 0 0 0
0 0 0 0 0 0 0 0 0 0 0 0 0 0 0 0 0 0 0 0 0 0
0 0 0 0 0 0 0 0 0 0 0 0 0 0 0 0 0 0 0 0 0 0
0 0 0 0 0 0 0 0 0 0 0 0 0 0 0 0 0 0 0 0 0 0
0 0 0 0 0 0 0 0 0 0 0 0 0 0 0 0 0 0 0 0 0 0
0 0 0 0 0 0 0 0 0 0 0 0 0 0 0 0 0 0 0 0 0 0
0 0 0 0 0 0 0 0 0 0 0 0 0 0 0 0 0 0 0 0 0 0
0 0 0 0 0 0 0 0 0 0 0 0 0 0 0 0 0 0 0 0 0 0
0 0 0 0 0 0 0 0 0 0 0 0 0 0 0 0 0 0 0 0 0 0
0 0 0 0 0 0 0 0 0 0 0 0 0 0 0 0 0 0 0 0 0 0
0 0 0 0 0 0 0 0 0 0 0 0 0 0 0 0 0 0 0 0 0 0
0 0 0 0 0 0 0 0 0 0 0 0 0 0 0 0 0 0 0 0 0 0
0 0 0 0 0 0 0 0 0 0 0 0 0 0 0 0 0 0 0 0 0 0
Wind_Speed
8 6 5 5 5 4 4 4 4 5 5 5 5 5 5 4 4 4 4 5 4 3
5 8 7 6 5 4 4 5 5 5 5 4 5 4 4 3 4 3 3 3 3 2
5 5 6 6 6 6 5 5 6 5 5 4 4 4 4 3 3 3 2 2 2 2
5 6 6 5 5 5 5 6 5 5 5 4 4 3 4 3 2 2 1 1 1 2
6 5 5 5 5 4 5 4 4 4 4 4 4 4 3 3 1 3 3 3 3 4
5 5 4 4 4 3 3 3 3 3 3 3 3 3 3 3 3 4 4 4 4 5
7 6 5 4 3 2 0 2 2 3 3 3 3 4 4 5 4 5 6 6 6 7
4 4 5 4 3 3 2 2 3 3 4 4 4 5 5 6 6 7 7 7 9 9
3 3 3 2 3 4 5 4 4 5 6 6 6 13 16 13 8 10 10 9 9 10
3 4 4 4 4 5 6 8 8 9 9 9 9 18 20 21 11 9 9 11 11 10
5 5 4 5 5 6 6 7 9 9 9 10 9 21 22 23 14 11 12 12 11 11
7 7 7 7 7 6 7 7 8 10 10 11 11 22 24 21 13 13 14 13 13 13
7 7 7 8 8 7 6 9 9 11 10 15 13 19 23 21 11 13 11 13 14 25
7 7 7 8 6 6 7 9 8 10 9 11 12 12 23 25 14 12 11 11 11 11
Wind_Direction
140 145 149 151 148 143 139 131 124 108 104 100 96 89 89 93 92 91 94 99 89 99
127 146 158 140 130 124 115 129 115 118 112 109 105 108 101 101 101 93 92 100 100 104
128 127 135 141 144 143 138 130 133 127 125 122 116 109 102 97 96 96 69 64 48 65
99 105 107 116 124 137 129 130 132 139 142 142 139 135 131 124 112 103 82 13 314 279
77 78 86 95 98 105 117 127 143 152 160 164 168 166 165 183 155 197 224 231 244 244
61 69 76 86 100 111 128 146 165 166 175 176 185 191 199 205 215 224 226 223 222 241
23 25 32 36 37 30 117 192 206 210 213 218 208 222 233 232 217 222 232 229 223 225
15 10 6 9 5 353 332 286 257 246 240 229 229 241 236 239 234 225 226 231 235 239
347 345 338 328 319 313 304 282 261 246 245 242 246 254 259 252 222 235 234 234 233 240
302 299 296 295 288 278 278 279 274 268 260 255 248 260 266 266 263 247 227 232 239 237
273 265 260 261 263 267 268 268 268 267 260 257 257 263 264 264 264 259 254 250 241 233
281 279 274 268 259 257 259 262 263 264 263 258 255 261 266 267 266 264 263 257 248 243
271 264 262 259 257 255 251 260 265 268 264 261 263 261 265 265 263 262 260 255 251 253
270 259 257 262 257 251 248 260 257 261 265 267 265 266 268 267 263 259 256 250 247 246